Waskish, MN

6:43 AM CST on January 20, 2017 (GMT -0600)
Waskish Municipal

Weather History for KVWU - December, 2011

Change the Weather History Date:

Monday, December 26, 2011

  Actual Average (KBDE) Record (KBDE)
Temperature  
Mean Temperature 38 °F -  
Max Temperature 42 °F 14 °F 44 °F (2011)
Min Temperature 33 °F -6 °F -39 °F (1934)
Degree Days  
Heating Degree Days 28    
Moisture  
Dew Point 26 °F    
Average Humidity 66    
Maximum Humidity 93    
Minimum Humidity 52    
Precipitation  
Precipitation 0.00 in - - ()
Sea Level Pressure  
Sea Level Pressure 29.53 in    
Wind  
Wind Speed 11 mph (SSW)    
Max Wind Speed 20 mph    
Max Gust Speed 31 mph    
Visibility 10 miles    
Events Rain    
Averages and records for this station are not official NWS values.
T = Trace of Precipitation, MM = Missing Value Source: NWS Daily Summary

Daily Weather History Graph

Daily Weather History Graph

Search for Another Location

Airport or City:

Trip Planner

Search our weather history database for the weather conditions in past years. The results will help you decide how hot, cold, wet, or windy it might be!

Date:

Astronomy

Dec. 26, 2011 Rise Set
Actual Time 8:07 AM CST 4:29 PM CST
Civil Twilight 7:31 AM CST 5:06 PM CST
Nautical Twilight 6:51 AM CST 5:45 PM CST
Astronomical Twilight 6:13 AM CST 6:23 PM CST
Moon 9:19 AM CST (12/26) 7:08 PM CST (12/26)
Length of Visible Light 9h 35m
Length of Day
8h 21m
Waxing Crescent, 5% of the Moon is Illuminated
Dec 26
Waxing Crescent
Jan 1
First Quarter
Jan 9
Full
Jan 16
Last Quarter
Jan 23
New

Hourly Weather History & Observations

Time (CST) Temp. Windchill Dew Point Humidity Pressure Visibility Wind Dir Wind Speed Gust Speed Precip Events Conditions
12:06 AM 35.6 °F 28.6 °F 21.2 °F 56% 29.83 in 10.0 mi South 9.2 mph 18.4 mph N/A   Clear
12:26 AM 35.6 °F 28.0 °F 21.2 °F 56% 29.83 in 10.0 mi South 10.4 mph 16.1 mph N/A   Clear
12:46 AM 35.6 °F 28.0 °F 21.2 °F 56% 29.81 in 10.0 mi South 10.4 mph 18.4 mph N/A   Clear
1:06 AM 35.6 °F 27.5 °F 21.2 °F 56% 29.80 in 10.0 mi South 11.5 mph 18.4 mph N/A   Clear
1:27 AM 35.6 °F 28.0 °F 21.2 °F 56% 29.79 in 10.0 mi South 10.4 mph 16.1 mph N/A   Clear
1:47 AM 37.4 °F 30.3 °F 21.2 °F 52% 29.77 in 10.0 mi South 10.4 mph 17.3 mph N/A   Clear
2:27 AM 37.4 °F 29.3 °F 21.2 °F 52% 29.75 in 10.0 mi South 12.7 mph 18.4 mph N/A   Clear
2:47 AM 37.4 °F 31.4 °F 21.2 °F 52% 29.74 in 10.0 mi South 8.1 mph 18.4 mph N/A   Clear
3:07 AM 37.4 °F 29.8 °F 21.2 °F 52% 29.73 in 10.0 mi South 11.5 mph 18.4 mph N/A   Clear
3:26 AM 37.4 °F 31.4 °F 21.2 °F 52% 29.71 in 10.0 mi South 8.1 mph 16.1 mph N/A   Clear
3:47 AM 35.6 °F 29.2 °F 21.2 °F 56% 29.69 in 10.0 mi SSE 8.1 mph - N/A   Clear
4:07 AM 35.6 °F 28.0 °F 21.2 °F 56% 29.67 in 10.0 mi South 10.4 mph 18.4 mph N/A   Clear
4:27 AM 35.6 °F 28.0 °F 21.2 °F 56% 29.66 in 10.0 mi SSE 10.4 mph 17.3 mph N/A   Clear
4:46 AM 35.6 °F 28.0 °F 21.2 °F 56% 29.64 in 10.0 mi South 10.4 mph 17.3 mph N/A   Clear
5:07 AM 35.6 °F 28.6 °F 21.2 °F 56% 29.62 in 10.0 mi SSE 9.2 mph 16.1 mph N/A   Clear
5:27 AM 33.8 °F 27.0 °F 21.2 °F 60% 29.60 in 10.0 mi South 8.1 mph 17.3 mph N/A   Clear
6:06 AM 33.8 °F 25.3 °F 21.2 °F 60% 29.58 in 10.0 mi South 11.5 mph 20.7 mph N/A   Clear
6:26 AM 33.8 °F 25.8 °F 21.2 °F 60% 29.56 in 10.0 mi South 10.4 mph 18.4 mph N/A   Clear
6:46 AM 33.8 °F 25.3 °F 21.2 °F 60% 29.55 in 10.0 mi South 11.5 mph - N/A   Clear
7:06 AM 33.8 °F 26.4 °F 21.2 °F 60% 29.54 in 10.0 mi SSE 9.2 mph - N/A   Clear
7:27 AM 33.8 °F 28.6 °F 21.2 °F 60% 29.52 in 10.0 mi South 5.8 mph - N/A   Clear
8:06 AM 35.6 °F 29.2 °F 21.2 °F 56% 29.49 in 10.0 mi South 8.1 mph - N/A   Clear
8:46 AM 35.6 °F 29.2 °F 21.2 °F 56% 29.47 in 10.0 mi South 8.1 mph 16.1 mph N/A   Clear
9:07 AM 37.4 °F 30.3 °F 23.0 °F 56% 29.47 in 10.0 mi SSW 10.4 mph 18.4 mph N/A   Clear
9:27 AM 37.4 °F 30.3 °F 23.0 °F 56% 29.45 in 10.0 mi South 10.4 mph 16.1 mph N/A   Clear
9:46 AM 37.4 °F 31.4 °F 23.0 °F 56% 29.44 in 10.0 mi South 8.1 mph 16.1 mph N/A   Clear
10:06 AM 37.4 °F 30.8 °F 23.0 °F 56% 29.45 in 10.0 mi South 9.2 mph 17.3 mph N/A   Clear
10:26 AM 37.4 °F 28.9 °F 24.8 °F 60% 29.45 in 10.0 mi SSW 13.8 mph - N/A   Clear
10:46 AM 37.4 °F 28.2 °F 24.8 °F 60% 29.44 in 10.0 mi SSW 16.1 mph - N/A   Clear
11:06 AM 37.4 °F 29.8 °F 24.8 °F 60% 29.45 in 10.0 mi SW 11.5 mph 19.6 mph N/A   Clear
11:26 AM 37.4 °F 27.8 °F 26.6 °F 65% 29.44 in 10.0 mi SW 17.3 mph 20.7 mph N/A   Clear
11:46 AM 37.4 °F 28.5 °F 26.6 °F 65% 29.42 in 10.0 mi SW 15.0 mph 24.2 mph N/A   Clear
12:07 PM 37.4 °F 28.9 °F 26.6 °F 65% 29.43 in 10.0 mi SW 13.8 mph 23.0 mph N/A   Clear
12:27 PM 37.4 °F 28.9 °F 28.4 °F 70% 29.42 in 10.0 mi SSW 13.8 mph 18.4 mph N/A   Clear
12:46 PM 39.2 °F 31.2 °F 28.4 °F 65% 29.41 in 10.0 mi SW 13.8 mph 17.3 mph N/A   Clear
1:07 PM 39.2 °F 30.8 °F 28.4 °F 65% 29.40 in 10.0 mi SW 15.0 mph 20.7 mph N/A   Clear
1:26 PM 41.0 °F 32.8 °F 28.4 °F 61% 29.39 in 10.0 mi SSW 16.1 mph 19.6 mph N/A   Clear
1:46 PM 42.8 °F 35.4 °F 28.4 °F 57% 29.40 in 10.0 mi SW 15.0 mph 19.6 mph N/A   Clear
2:06 PM 42.8 °F 35.4 °F 28.4 °F 57% 29.39 in 10.0 mi SW 15.0 mph 19.6 mph N/A   Clear
2:26 PM 42.8 °F 36.2 °F 28.4 °F 57% 29.39 in 10.0 mi SW 12.7 mph 17.3 mph N/A   Clear
2:46 PM 41.0 °F 33.1 °F 28.4 °F 61% 29.40 in 10.0 mi SW 15.0 mph - N/A   Clear
3:07 PM 39.2 °F 32.5 °F 28.4 °F 65% 29.41 in 10.0 mi SW 10.4 mph - N/A   Mostly Cloudy
3:27 PM 39.2 °F 32.0 °F 30.2 °F 70% 29.42 in 10.0 mi SW 11.5 mph 20.7 mph N/A   Overcast
3:46 PM 39.2 °F 31.2 °F 30.2 °F 70% 29.42 in 10.0 mi SW 13.8 mph - N/A   Overcast
4:06 PM 39.2 °F 30.8 °F 30.2 °F 70% 29.42 in 10.0 mi WSW 15.0 mph 24.2 mph N/A   Light Drizzle
4:26 PM 39.2 °F 32.0 °F 30.2 °F 70% 29.43 in 10.0 mi SW 11.5 mph - N/A   Overcast
4:47 PM 39.2 °F 30.2 °F 32.0 °F 75% 29.44 in 10.0 mi WSW 17.3 mph 25.3 mph N/A Rain Light Rain
5:07 PM 37.4 °F 27.8 °F 33.8 °F 87% 29.45 in 10.0 mi WSW 17.3 mph 25.3 mph N/A   Light Drizzle
5:26 PM 37.4 °F 27.8 °F 33.8 °F 87% 29.46 in 10.0 mi West 17.3 mph - N/A   Drizzle
5:47 PM 35.6 °F 27.1 °F 33.8 °F 93% 29.46 in 10.0 mi WSW 12.7 mph - N/A   Light Drizzle
6:07 PM 35.6 °F 27.5 °F 33.8 °F 93% 29.47 in 10.0 mi SW 11.5 mph - N/A   Clear
6:27 PM 35.6 °F 27.5 °F 33.8 °F 93% 29.48 in 10.0 mi SW 11.5 mph - N/A   Clear
6:46 PM 35.6 °F 27.1 °F 33.8 °F 93% 29.48 in 10.0 mi SW 12.7 mph - N/A   Clear
7:07 PM 35.6 °F 27.5 °F 33.8 °F 93% 29.49 in 10.0 mi WSW 11.5 mph - N/A   Scattered Clouds
7:26 PM 35.6 °F 26.6 °F 33.8 °F 93% 29.50 in 10.0 mi WSW 13.8 mph 21.9 mph N/A   Mostly Cloudy
7:46 PM 35.6 °F 26.6 °F 33.8 °F 93% 29.51 in 10.0 mi West 13.8 mph 23.0 mph N/A   Overcast
8:07 PM 33.8 °F 22.5 °F 32.0 °F 93% 29.53 in 10.0 mi West 19.6 mph 31.1 mph N/A   Overcast
8:27 PM 33.8 °F 23.9 °F 30.2 °F 87% 29.53 in 10.0 mi West 15.0 mph 23.0 mph N/A   Overcast
8:46 PM 33.8 °F 23.5 °F 30.2 °F 87% 29.54 in 10.0 mi West 16.1 mph 23.0 mph N/A   Overcast
9:07 PM 33.8 °F 23.9 °F 30.2 °F 87% 29.56 in 10.0 mi WNW 15.0 mph 21.9 mph N/A   Overcast
9:27 PM 33.8 °F 24.3 °F 30.2 °F 87% 29.58 in 10.0 mi WNW 13.8 mph 26.5 mph N/A   Overcast
9:46 PM 33.8 °F 23.2 °F 28.4 °F 81% 29.60 in 10.0 mi WNW 17.3 mph 25.3 mph N/A   Overcast
10:26 PM 32.0 °F 20.5 °F 26.6 °F 80% 29.63 in 10.0 mi WNW 18.4 mph 25.3 mph N/A   Overcast
10:46 PM 30.2 °F 18.5 °F 26.6 °F 86% 29.65 in 10.0 mi WNW 17.3 mph 20.7 mph N/A   Overcast
11:06 PM 30.2 °F 18.5 °F 26.6 °F 86% 29.67 in 10.0 mi WNW 17.3 mph 25.3 mph N/A   Overcast
11:27 PM 28.4 °F 16.6 °F 24.8 °F 86% 29.69 in 10.0 mi WNW 16.1 mph 25.3 mph N/A   Overcast
11:47 PM 28.4 °F 16.2 °F 24.8 °F 86% 29.71 in 10.0 mi NW 17.3 mph 25.3 mph N/A   Overcast